[[{"header":{"parameterUnit":"m.s-1","parameterCategory":1,"la1":30.2992,"la2":30.254,"lo1":-89.0895,"lo2":-89.0443,"dy":0.0025,"dx":0.0025,"nx":19,"ny":19,"refTime":"2026-04-22T03:00:00:Z","depth":0,"parameterNumber":2,"parameterNumberName":"U-component_of_WINDS"},"data":[0,0,0,-5.4697,-5.4699,-5.4818,-5.4818,-5.4981,-5.4982,0,0,0,0,0,0,0,0,0,0,0,-5.4669,-5.467,-5.4696,-5.47,-5.4818,-5.4818,-5.498,-5.4982,0,0,0,0,0,0,0,0,0,0,0,-5.4668,-5.4669,-5.4671,-5.47,-5.4818,-5.4818,-5.498,-5.4887,0,0,0,0,0,0,0,0,0,0,-5.477,-5.4751,-5.4669,-5.4671,-5.4701,-5.4818,-5.4818,-5.4882,-5.4892,-5.4932,0,-5.4969,0,-5.4978,-5.4994,-5.4994,0,0,0,-5.4694,-5.4742,-5.4768,-5.4671,-5.4702,-5.4818,-5.4763,-5.4888,-5.49,-5.4946,-5.4971,-5.4977,-5.4981,-5.4995,-5.4996,-5.5242,-5.5244,0,0,-5.4687,-5.4693,-5.476,-5.4776,-5.4759,-5.4759,-5.4767,-5.4895,-5.4923,-5.4972,-5.4981,-5.4984,-5.4996,-5.4997,-5.5241,-5.5243,0,0,0,-5.4672,-5.4689,-5.4711,-5.4769,-5.479,-5.4763,-5.4771,-5.4917,-5.4924,-5.4982,-5.4986,-5.4997,-5.4999,-5.5239,-5.5242,-5.5315,0,0,0,-5.4668,-5.468,-5.4709,-5.4714,-5.4788,-5.4855,-5.4791,-5.4915,-5.4929,-5.4985,-5.4997,-5.5001,-5.5238,-5.5241,-5.531,-5.5348,0,0,0,-5.4658,-5.4679,-5.4699,-5.4714,-5.4765,-5.4853,-5.4867,-5.4918,-5.4932,-5.4995,-5.5001,-5.5237,-5.524,-5.5305,-5.5341,-5.5414,0,0,0,-5.4649,-5.4763,-5.47,-5.4828,-5.4764,-5.4899,-5.4866,-5.4966,-5.5029,-5.4998,-5.5238,-5.5241,-5.5304,-5.5336,-5.5409,-5.5474,-5.5503,0,0,-5.4796,-5.4781,-5.4856,-5.4803,-5.495,-5.488,-5.5038,-5.509,-5.5091,-5.5192,-5.5198,-5.5312,-5.534,-5.5413,-5.5666,-5.5689,0,0,0,-5.4904,-5.4958,-5.4996,-5.5056,-5.51,-5.514,-5.5167,-5.5187,-5.5272,-5.5144,-5.5359,-5.5376,-5.5418,-5.5449,-5.5468,-5.5503,-5.5257,-5.5256,-5.5256,-5.5117,-5.5113,-5.5237,-5.5247,-5.5307,-5.5335,-5.5382,-5.5413,-5.5391,-5.5442,-5.5471,-5.5625,-5.5662,-5.5676,-5.5713,-5.5508,-5.5508,-5.5508,-5.5508,-5.533,-5.5404,-5.5374,-5.5482,-5.5477,-5.5568,-5.5601,-5.5582,-5.5666,-5.5603,-5.564,-5.5569,-5.5702,-5.5733,-5.5514,-5.5513,-5.5512,-5.5512,-5.5511,-5.5466,-5.5501,-5.5524,-5.5612,-5.568,-5.5687,-5.5769,-5.5762,-5.5756,-5.5793,-5.5821,-5.582,-5.5816,-5.5808,-5.5808,-5.5809,-5.5809,-5.581,-5.581,-5.5598,-5.5622,-5.5691,-5.5748,-5.5786,-5.5836,-5.5867,-5.5904,-5.5943,-5.5931,-5.5932,-5.5903,-5.5717,-5.5668,-5.5818,-5.5817,-5.5816,-5.5815,-5.5814,-5.5809,-5.5761,-5.5869,-5.5907,-5.5973,-5.6041,-5.6032,-5.6109,-5.6139,-5.6179,-5.6145,-5.6009,-5.5992,-5.5977,-5.5936,-5.6147,-5.6147,-5.6147,-5.6147,-5.5922,-5.5915,-5.6023,-5.6085,-5.6145,-5.6148,-5.627,-5.6296,-5.6315,-5.6333,-5.6302,-5.6249,-5.6234,-5.6226,-5.6206,-5.6167,-5.6432,-5.6432,-5.6433,-5.6051,-5.6049,-5.6153,-5.6172,-5.6223,-5.6268,-5.6381,-5.6453,-5.6465,-5.6444,-5.6346,-5.6334,-5.6249,-5.6222,-5.6194,-5.6162,-5.6092,0,0]},{"header":{"parameterUnit":"m.s-1","parameterCategory":1,"la1":30.2992,"la2":30.254,"lo1":-89.0895,"lo2":-89.0443,"dy":0.0025,"dx":0.0025,"nx":19,"ny":19,"refTime":"2026-04-22T03:00:00:Z","depth":0,"parameterNumber":3,"parameterNumberName":"V-component_of_WINDS"},"data":[0,0,0,3.1038,3.1037,3.0983,3.0983,3.0922,3.0922,0,0,0,0,0,0,0,0,0,0,0,3.106,3.106,3.1038,3.1037,3.0984,3.0983,3.0922,3.0922,0,0,0,0,0,0,0,0,0,0,0,3.106,3.106,3.106,3.1036,3.0984,3.0983,3.0922,3.0959,0,0,0,0,0,0,0,0,0,0,3.1009,3.1037,3.106,3.106,3.1036,3.0984,3.0983,3.0961,3.0957,3.095,0,3.0948,0,3.0934,3.0918,3.0918,0,0,0,3.1031,3.1041,3.1021,3.106,3.1036,3.0984,3.1006,3.0959,3.0954,3.0945,3.0947,3.0945,3.0933,3.0918,3.0918,3.0905,3.0906,0,0,3.1034,3.1053,3.1024,3.1018,3.103,3.1008,3.1004,3.0956,3.0958,3.0947,3.0943,3.0932,3.0918,3.0917,3.0905,3.0906,0,0,0,3.1046,3.1055,3.1037,3.1021,3.1011,3.1006,3.1002,3.096,3.0953,3.0942,3.0932,3.0917,3.0917,3.0905,3.0905,3.0937,0,0,0,3.1047,3.1063,3.1038,3.1049,3.1012,3.0986,3.1008,3.0956,3.095,3.0932,3.0917,3.0916,3.0905,3.0905,3.0935,3.0947,0,0,0,3.1061,3.1064,3.1059,3.1051,3.1029,3.0986,3.0975,3.0954,3.0944,3.0918,3.0916,3.0905,3.0905,3.0934,3.0945,3.095,0,0,0,3.108,3.1085,3.106,3.1062,3.103,3.1007,3.0975,3.0957,3.0938,3.0917,3.0905,3.0905,3.0934,3.0944,3.0949,3.0958,3.0964,0,0,3.1097,3.1088,3.1087,3.1063,3.1051,3.1013,3.1004,3.0967,3.0945,3.0919,3.0919,3.0936,3.0945,3.095,3.0992,3.0997,0,0,0,3.1099,3.1099,3.1092,3.1077,3.1052,3.103,3.0994,3.098,3.0958,3.0937,3.0939,3.0943,3.0946,3.0949,3.0953,3.0954,3.0908,3.0908,3.0908,3.1149,3.1125,3.1122,3.1092,3.1078,3.1042,3.1028,3.1003,3.0978,3.098,3.0971,3.1,3.1005,3.1008,3.1009,3.0975,3.0975,3.0975,3.0975,3.1172,3.1168,3.114,3.1128,3.1101,3.1089,3.1054,3.1039,3.1022,3.1004,3.1004,3.0985,3.1014,3.1013,3.0977,3.0977,3.0977,3.0976,3.0976,3.1201,3.1195,3.1182,3.116,3.1146,3.1114,3.1101,3.1076,3.1052,3.1053,3.1042,3.1041,3.1037,3.105,3.105,3.105,3.105,3.105,3.105,3.1237,3.1221,3.1215,3.1191,3.118,3.1161,3.1127,3.1114,3.1093,3.1076,3.1075,3.1051,3.1022,3.1015,3.1051,3.1051,3.1051,3.1051,3.1051,3.1268,3.1258,3.1249,3.1238,3.1208,3.1196,3.1166,3.1142,3.1128,3.1123,3.11,3.1083,3.107,3.1066,3.106,3.1105,3.1105,3.1105,3.1105,3.1293,3.1286,3.1271,3.1256,3.1237,3.121,3.1199,3.1173,3.1143,3.1133,3.1123,3.1113,3.1111,3.1099,3.1095,3.1089,3.114,3.114,3.114,3.131,3.1301,3.1297,3.1271,3.1247,3.1226,3.1215,3.1197,3.116,3.1141,3.1124,3.1122,3.1106,3.1103,3.1081,3.1075,3.1063,0,0]}]]